STARLINK-3307

decayed
NORAD ID: 50164 Int'l Des: 2021-125 Owner: SPXS Country: US Constellation: starlink
LEOCIRCULAR
Gruppe

Über STARLINK-3307

Beschreibung wird geladen...

Höhenverlauf

Altitude vs Time

uPlot chart will show altitude changes over time

Zweizeiliger Elementsatz

1 50164U 21125J 22167.07672121 .99999999 12430-4 81965-2 0 9998
2 50164 53.1826 190.9484 0010425 320.3567 41.0592 16.39511435 31177
Epoch: 16. Juni 2022 • Age: 28525 hours

Aktueller Status

Position data unavailable
Startdatum 18. Dez. 2021
Alter 3.7 years
Verglühungsdatum 16. Juni 2022
Typ internet

Technische Details

Klassifizierung Payload
Masse 290.00 kg
Trockenmasse 270.00 kg
Gesamtmasse 290.00 kg
Länge 0.20 m
Durchmesser 2.80 m
Spannweite 9.00 m
Form Box + pan
Hersteller SPXS
Bus-Typ Starlink
Phasenstatus Reentered
Besitzer/Staat SPXS/US

Große Konstellationen

Loading constellations...